Mount Sterling, KY

12:12 AM EDT on September 25, 2016 (GMT -0400)
Hinkston Pike | | Change Station

Elev 971 ft 38.07 °N, 83.94 °W | Updated 7 minutes ago

Scattered Clouds
Scattered Clouds
77.2 °F
Feels Like 79 °F
N
0.0
Wind Variable Wind from North
Gusts 1.2 mph

Today
High -- | Low -- °F
--% Chance of Precip.
Yesterday
High -- | Low -- °F
Precip. -- in
Pressure 30.14 in
Visibility 10.0 miles
Clouds Scattered Clouds 6000 ft
Heat Index 79 °F
Dew Point 67 °F
Humidity 70%
Rainfall in
Snow Depth Not available.
7:26 AM 7:27 PM
Waning Crescent, 31% visible
METAR KIOB 250355Z AUTO 07004KT 10SM SCT060 22/18 A3014 RMK AO2
Pressure 30.14 in
Visibility 10.0 miles
Clouds Scattered Clouds 6000 ft
Heat Index 79 °F
Dew Point 67 °F
Humidity 70%
Rainfall in
Snow Depth Not available.
7:26 AM 7:27 PM
Waning Crescent, 31% visible
METAR KIOB 250355Z AUTO 07004KT 10SM SCT060 22/18 A3014 RMK AO2

10-Day Weather Forecast

Almanac

Astronomy

Sep. 25, 2016 Rise Set
Actual Time
Civil Twilight
Nautical Twilight
Astronomical Twilight
Moon
Length of Visible Light
Length of Day
Tomorrow will be .
, % of the Moon is Illuminated

Today's Extremes

State Highs State Lows

Community

WunderPhotos

Upload Photos

1,941,545 photos uploaded!

WunderBlog® & News

Nearby

Air Quality

  Air Quality AQ Index Pollutant
Not available.

Snow Depth

Station Depth Elevation

Earthquake Activity

City Distance Mag. Time & Date
Minimum magnitude displayed is 2.5.

Coastal Water Temperatures

Place Temperature

Stations

Nearby Weather Stations

Station Location Temp. Windchill Dew Point Humidity Wind Precip. Elev Updated Type
                   

Watches & Warnings

There are currently no watches in effect.